This demonstration page uses our WeatherBlox Daily Observations layout. Learn more.

Left ArrowRight Arrow

Hourly Observations for May 16, 2019

Temp ( °F °C ) Dew Point ( °F °C ) Humidity (%) Winds ( mph kmh ) Pressure ( in mb ) Visibility ( mi km ) Precip ( " mm )
12:15 am 00:15 Clear 65 18.3 62 16.5 89 89 S 6 9 29.75 1008 10 16 N/A
12:35 am 00:35 Clear 67 19.2 62 16.9 87 87 S 5 7 29.75 1008 10 16 N/A
12:55 am 00:55 Clear 66 18.8 62 16.7 88 88 N N/A 29.74 1007 10 16 N/A
1:15 am 01:15 Clear 65 18.6 62 16.7 89 89 N N/A 29.73 1007 10 16 N/A
1:35 am 01:35 Clear 64 17.6 60 15.8 89 89 N N/A 29.74 1007 10 16 N/A
1:55 am 01:55 Clear 63 17 61 16 94 94 N 8 13 29.74 1007 10 16 N/A
2:15 am 02:15 Clear 62 16.6 61 15.9 96 96 NNE 3 6 29.76 1008 10 16 N/A
2:35 am 02:35 Clear 62 16.7 61 16 96 96 N N/A 29.74 1007 10 16 N/A
2:55 am 02:55 Clear 63 17.2 61 16.1 93 93 SSE 3 6 29.74 1007 10 16 N/A
3:15 am 03:15 Clear 62 16.4 60 15.7 96 96 N N/A 29.75 1007 10 16 N/A
3:35 am 03:35 Clear 62 16.8 61 16 95 95 S 6 9 29.73 1007 10 16 N/A
3:55 am 03:55 Clear 62 16.6 60 15.8 95 95 S 3 6 29.74 1007 10 16 N/A
4:15 am 04:15 Clear 60 15.7 59 15.2 97 97 S 5 7 29.74 1007 10 16 N/A
4:35 am 04:35 Clear 61 16 60 15.3 96 96 S 7 11 29.74 1007 10 16 N/A
4:55 am 04:55 Clear 62 16.9 59 15 89 89 S 8 13 29.72 1007 10 16 N/A
5:15 am 05:15 Clear 62 16.9 58 14.5 86 86 S 7 11 29.72 1007 10 16 N/A
5:35 am 05:35 Clear 61 16 58 14.4 90 90 S 8 13 29.72 1006 10 16 N/A
5:55 am 05:55 Clear 63 17.2 56 13.4 78 78 S 10 17 29.71 1006 10 16 N/A
6:15 am 06:15 Clear 63 17.4 55 12.5 73 73 S 12 19 29.71 1006 10 16 N/A
6:35 am 06:35 Sunny 64 17.5 55 12.5 73 73 S 12 19 29.70 1006 10 16 N/A
6:55 am 06:55 Sunny 64 18 55 12.5 70 70 S 10 17 29.69 1006 10 16 N/A
7:15 am 07:15 Sunny 64 18 55 12.7 71 71 S 9 15 29.70 1006 10 16 N/A
7:35 am 07:35 Sunny 65 18.6 55 13 70 70 S 12 19 29.70 1006 10 16 N/A
7:55 am 07:55 Sunny 66 19.1 56 13.4 70 70 S 10 17 29.70 1006 10 16 N/A
8:15 am 08:15 Sunny 68 20 56 13.5 66 66 S 13 20 29.69 1005 10 16 N/A
8:35 am 08:35 Sunny 69 20.5 57 13.7 65 65 SSW 10 17 29.67 1005 10 16 N/A
8:55 am 08:55 Sunny 70 21 56 13.4 62 62 SSW 16 26 29.67 1005 10 16 N/A
9:15 am 09:15 Sunny 70 21.3 56 13.5 61 61 SSW 15 24 29.67 1005 10 16 N/A
9:35 am 09:35 Sunny 72 22.1 57 13.8 59 59 SSW 10 17 29.66 1004 10 16 N/A
9:55 am 09:55 Sunny 73 22.5 57 13.9 58 58 SSW 13 20 29.66 1004 10 16 N/A
10:15 am 10:15 Sunny 73 23 57 13.9 57 57 SSW 9 15 29.65 1004 10 16 N/A
10:35 am 10:35 Sunny 75 24 58 14.2 54 54 SSW 10 17 29.65 1004 10 16 N/A
10:55 am 10:55 Sunny 76 24.5 58 14.3 53 53 SSW 12 19 29.63 1003 10 16 N/A
11:15 am 11:15 Sunny 77 25.2 58 14.2 51 51 S 8 13 29.63 1003 10 16 N/A
11:35 am 11:35 Sunny 79 26.1 58 14.4 49 49 S 7 11 29.62 1003 10 16 N/A
11:55 am 11:55 Sunny 79 26.2 59 15.1 50 50 SSE 6 9 29.62 1003 10 16 N/A
12:15 pm 12:15 Sunny 80 26.8 58 14.5 47 47 SE 3 6 29.61 1003 10 16 N/A
12:35 pm 12:35 Sunny 81 27.2 58 14.7 46 46 SE 6 9 29.60 1002 10 16 N/A
12:55 pm 12:55 Sunny 82 28 59 15.2 46 46 SSE 3 6 29.59 1002 10 16 N/A
1:15 pm 13:15 Sunny 83 28.4 59 14.8 43 43 SSE 8 13 29.57 1001 10 16 N/A
1:35 pm 13:35 Sunny 83 28.6 58 14.6 42 42 SSE 9 15 29.56 1001 10 16 N/A
1:55 pm 13:55 Sunny 85 29.2 58 14.5 41 41 SSE 10 17 29.56 1001 10 16 N/A
2:15 pm 14:15 Sunny 85 29.5 58 14.2 39 39 S 12 19 29.55 1001 10 16 N/A
2:35 pm 14:35 Sunny 86 29.8 59 14.9 40 40 S 15 24 29.54 1000 10 16 N/A
2:55 pm 14:55 Sunny 87 30.6 59 15.2 39 39 S 13 20 29.52 1000 10 16 N/A
3:15 pm 15:15 Sunny 88 31 58 14.5 37 37 S 14 22 29.52 1000 10 16 N/A
3:35 pm 15:35 Sunny 89 31.4 58 14.3 35 35 S 14 22 29.52 1000 10 16 N/A
3:55 pm 15:55 Sunny 89 31.8 58 14.5 35 35 SSW 13 20 29.51 999 10 16 N/A
4:15 pm 16:15 Sunny 90 32 57 13.7 33 33 S 16 26 29.49 999 10 16 N/A
4:35 pm 16:35 Sunny 90 32.3 58 14.2 33 33 S 14 22 29.48 998 10 16 N/A
4:55 pm 16:55 Sunny 90 32.1 57 14 33 33 SSW 15 24 29.48 998 10 16 N/A
5:15 pm 17:15 Sunny 89 31.6 56 13.3 33 33 S 14 22 29.48 998 10 16 N/A
5:35 pm 17:35 Sunny 89 31.5 56 13.1 32 32 S 16 26 29.48 998 10 16 N/A
5:55 pm 17:55 Sunny 88 31.2 56 13.5 34 34 SSW 13 20 29.48 998 10 16 N/A
6:15 pm 18:15 Sunny 88 30.9 56 13.6 35 35 S 8 13 29.48 998 10 16 N/A
6:35 pm 18:35 Sunny 87 30.5 58 14.5 38 38 S 8 13 29.48 998 10 16 N/A
6:55 pm 18:55 Sunny 85 29.2 61 15.9 45 45 SSE 6 9 29.48 998 10 16 N/A
7:15 pm 19:15 Sunny 85 29.5 62 16.5 45 45 S 6 9 29.47 998 10 16 N/A
7:35 pm 19:35 Sunny 83 28.6 61 15.9 46 46 S 8 13 29.48 998 10 16 N/A
7:55 pm 19:55 Sunny 81 27.3 60 15.4 48 48 SSE 9 15 29.49 999 10 16 N/A
8:15 pm 20:15 Sunny 81 27.4 58 14.6 46 46 S 8 13 29.49 999 10 16 N/A
8:35 pm 20:35 Sunny 81 27 58 14.7 47 47 S 12 19 29.49 999 10 16 N/A
8:55 pm 20:55 Partly Cloudy with Thunderstorms 82 27.6 58 14.3 44 44 SSW 16 26 29.50 999 10 16 N/A
9:15 pm 21:15 Clear with Nearby Thunderstorms 82 27.7 49 9.7 32 32 WSW 18 30 29.52 1000 10 16 N/A
9:35 pm 21:35 Mostly Cloudy with Strong Thunderstorms 77 24.9 52 11.3 43 43 SE 8 13 29.56 1001 5 8 0.13 3.30
9:55 pm 21:55 Partly Cloudy 78 25.4 50 9.9 38 38 N N/A 29.53 1000 10 16 0.14 3.56
10:15 pm 22:15 Clear 76 24.3 54 12.4 47 47 S 3 6 29.53 1000 10 16 N/A
10:35 pm 22:35 Clear with Nearby Thunderstorms 73 22.8 58 14.2 58 58 S 7 11 29.56 1001 10 16 N/A
10:55 pm 22:55 Clear 71 21.6 59 15.2 67 67 SSE 8 13 29.57 1001 10 16 N/A
11:15 pm 23:15 Clear 72 22.2 61 16.3 69 69 S 9 15 29.56 1001 10 16 N/A
11:35 pm 23:35 Clear 72 22 62 16.7 72 72 S 6 9 29.57 1001 10 16 N/A
11:55 pm 23:55 Clear 71 21.5 62 16.5 73 73 NNW 9 15 29.60 1002 10 16 N/A

Powered by AerisWeather